Location: Fort Worth, Tx
(32.7431°N, 97.3695°W)
Time: 19:37:07
(UTC-05:00)

Tiros 1 - Pass Details

Date: 04 October 2024
Orbit: 622 x 654 km, 48.4° (Epoch: 05 November)

Event Time Altitude Azimuth Distance (km) Brightness Sun altitude
Rises 17:55:14 0° 300° (WNW) 2,893 11.0 26.3°
Reaches altitude 10° 17:57:41 10° 291° (WNW) 1,984 10.4 25.9°
Maximum altitude 18:01:48 34° 227° (SW) 1,025 10.0 25.1°
Drops below altitude 10° 18:05:55 10° 162° (SSE) 1,983 9.8 24.3°
Sets 18:08:23 0° 153° (SSE) 2,890 10.5 23.8°
